Hourly Data Report for March 17, 2020

All times are specified in Local Standard Time (LST). Add 1 hour to adjust for Daylight Saving Time where and when it is observed.

OTTAWA INTL A
ONTARIO
Current Station Operator: NAVCAN

45°19'00.000" N
75°40'00.000" W
114.90 m
6106001
71628
YOW

Download Data

Hourly Data (March 2020)
Hourly Data Report for March 17, 2020
TIME Temp Definition
°C
Dew Point Definition
°C
Rel Hum Definition
%
Wind Dir Definition
10's deg

Wind Spd Definition
km/h
Visibility Definition
km
Stn Press Definition
kPa
Hmdx Definition


Wind Chill Definition


Weather Definition


00:00 -3.2 -8.7 66 9 16 24.1 100.53   -9 LegendNANA
01:00 -3.0 -7.8 70 7 10 24.1 100.44   -7 Cloudy
02:00 -2.3 -6.6 73 10 8 24.1 100.33   -5 LegendNANA
03:00 -0.2 -4.3 73 29 5 16.1 100.22   -2 Snow
04:00 -2.0 -3.9 87 34 3 4.8 100.19   -3 Freezing Rain,Snow,Fog
05:00 -1.0 -1.9 94 22 3 4.8 100.11   -2 Freezing Rain,Fog
06:00 0.4 -0.1 96 24 5 4.8 100.05     Rain,Fog
07:00 1.2 0.8 97 21 13 4.8 99.99     Rain,Fog
08:00 1.8 1.3 97 23 16 6.4 99.97     Rain,Fog
09:00 1.4 0.8 96 22 23 12.9 99.98     Rain
10:00 1.9 1.1 95 23 20 16.1 99.98     Rain
11:00 2.5 1.4 92 22 24 24.1 99.95     LegendNANA
12:00 3.5 1.2 85 23 30 24.1 99.97     LegendNANA
13:00 4.1 0.3 76 23 30 24.1 99.96     Mostly Cloudy
14:00 4.9 0.1 71 23 26 24.1 99.95     LegendNANA
15:00 5.5 -1.1 63 24 30 24.1 99.98     LegendNANA
16:00 5.4 -1.8 60 25 23 24.1 100.02     Mostly Cloudy
17:00 4.4 -1.9 64 26 24 24.1 100.13     LegendNANA
18:00 3.8 -3.3 60 30 25 24.1 100.29     LegendNANA
19:00 2.8 -3.5 63 27 10 24.1 100.42     Mostly Cloudy
20:00 2.0 -3.5 67 24 10 24.1 100.57     LegendNANA
21:00 2.4 -4.6 60 25 17 24.1 100.70     LegendNANA
22:00 1.7 -7.3 51 27 22 24.1 100.81     Mainly Clear
23:00 0.3 -7.2 57 26 16 24.1 100.92     LegendNANA

Notes on Data Quality.

Legend

  • E = Estimated
  • M = Missing
  • NA = Not Available*
  • [empty] = Indicates an unobserved value
Date modified: